Home > Weather > Butte > Past weeks

Flag for USA Past Weather in Butte, Montana, USA — Yesterday and Last 2 Weeks

Now
57 °F

Clear.


Feels Like: 55 °F
Forecast: 44 / 67 °F
Wind: 9 mph from Northwest

Location: Mooney Airport

Current Time: Jul 23, 2016 at 3:19:12 AM

Latest Report: Jul 23, 2016 at 2:53 AM


Visibility: 10 mi

Pressure: 30.01 "Hg (24.56 "Hg at 1685m altitude)

Humidity: 53%

Dew Point: 40 °F

Location of ButteLocation

Past Weather in Butte — Graph

°F

Butte Temperature Yesterday

Maximum temperature yesterday: 89 °F (at 2:53 PM)
Minimum temperature yesterday: 52 °F (at 5:53 AM)
Average temperature yesterday: 70 °F

High & Low Weather Summary for the Past Weeks

 TemperatureHumidityPressure
High89 °F (Jul 22, 2:53 PM)93% (Jul 10, 6:53 AM)30.23 "Hg (Jul 10, 6:53 AM)
Low36 °F (Jul 12, 6:53 AM)8% (Jul 19, 2:53 PM)29.74 "Hg (Jul 10, 6:53 PM)
Average61 °F51%29.96 "Hg
* Reported Jul 8 1:53 AM — Jul 23 1:53 AM, Butte, Weather by CustomWeather, © 2016

Note: Actual official high and low records may vary slightly from our data, if they occured in-between our weather recording intervals... More about our weather records

Advertising

Butte Weather History for the Previous 24 Hours

Scroll right to see more
 ConditionsComfort  
Time TempWeatherWind HumidityBarometerVisibility
1:53 AM
Sat, Jul 23
58 °FClear.6 mph56%30.01 "Hg10 mi
12:53 AM61 °FClear.3 mph50%29.99 "Hg10 mi
11:53 PM
Fri, Jul 22
63 °FClear.12 mph47%29.98 "Hg10 mi
10:53 PM65 °FClear.14 mph44%29.98 "Hg10 mi
9:53 PM68 °FSunny.10 mph38%29.96 "Hg10 mi
8:53 PM71 °FSunny.15 mph32%29.94 "Hg10 mi
7:53 PM76 °FSunny.23 mph27%29.89 "Hg10 mi
6:53 PM79 °FSunny.22 mph25%29.87 "Hg10 mi
5:53 PM84 °FSunny.20 mph19%29.84 "Hg10 mi
4:53 PM87 °FSunny.18 mph8%29.83 "Hg10 mi
3:53 PM87 °FSunny.12 mph10%29.83 "Hg10 mi
2:53 PM89 °FSunny.25 mph9%29.83 "Hg10 mi
1:53 PM88 °FSunny.10 mph11%29.84 "Hg10 mi
12:53 PM86 °FSunny.14 mph14%29.86 "Hg10 mi
11:53 AM83 °FSunny.12 mph21%29.88 "Hg10 mi
10:53 AM76 °FSunny.9 mph30%29.89 "Hg10 mi
9:53 AM69 °FPassing clouds.3 mph36%29.92 "Hg10 mi
8:53 AM63 °FSunny.3 mph41%29.95 "Hg10 mi
7:53 AM57 °FSunny.No wind49%29.94 "Hg10 mi
6:53 AM53 °FClear.No wind55%29.97 "Hg10 mi
5:53 AM52 °FClear.5 mph57%29.97 "Hg10 mi
4:53 AM53 °FClear.3 mph55%29.97 "Hg10 mi
3:53 AM56 °FClear.No wind51%29.96 "Hg10 mi
Weather by CustomWeather, © 2016

See weather overviewHow to use our weather pages